Weather Roundup
Issued by NWS Chicago, IL

Home | Current Version | Previous Version | Graphics & Text | Print | Product List | Glossary On
Versions: 1 2 3 4 5 6 7 8 9 10 11 12 13 14 15 16 17 18 19 20 21 22 23 24 25 26 27 28 29 30 31 32 33 34 35 36 37 38 39 40 41 42 43 44 45 46 47 48 49 50
000
NZUS59 KLOT 202358
HRRLOT

CHICAGO AREA WEATHER ROUNDUP
NATIONAL WEATHER SERVICE CHICAGO/ROMEOVILLE IL
700 PM CDT WED AUG 20 2014

NOTE: "FAIR" INDICATES FEW OR NO CLOUDS BELOW 12,000 FEET WITH NO
SIGNIFICANT WEATHER AND/OR OBSTRUCTIONS TO VISIBILITY.

* THESE STATIONS ARE NOT UNDER NWS QUALITY CONTROL. THEY ALSO MAY NOT
  REPORT WEATHER SUCH AS PRECIPITATION OR FOG.

ILZ005-006-012>014-019>023-210100-
NORTHEAST ILLINOIS

CITY           SKY/WX    TMP DP  RH WIND       PRES   REMARKS
OHARE          MOCLDY    82  63  52 W10       29.88R HX  83
6HR MIN TEMP:  82; 6HR MAX TEMP:  86;

MIDWAY         PTCLDY    84  68  58 W10       29.88S HX  87
6HR MIN TEMP:  84; 6HR MAX TEMP:  87;

AURORA         PTCLDY    79  69  71 SW9       29.90S HX  81
6HR MIN TEMP:  79; 6HR MAX TEMP:  85;

WAUKEGAN       PTCLDY    81  66  60 SW5       29.88R HX  83
6HR MIN TEMP:  80; 6HR MAX TEMP:  85;

DUPAGE AIRPORT CLEAR     81  65  58 W9        29.90R HX  83
6HR MIN TEMP:  81; 6HR MAX TEMP:  86;

WHEELING       PTCLDY    83  65  54 W10       29.89R HX  85
6HR MIN TEMP:  83; 6HR MAX TEMP:  87;

NORTHERLY IS     N/A     83  62  49 W13         N/A  HX  84
$$

WIZ051-052-058>065-066-070>072-210100-
SOUTHEAST WISCONSIN

CITY           SKY/WX    TMP DP  RH WIND       PRES   REMARKS
MILWAUKEE      MOCLDY    70  65  84 E6        29.90R
6HR MIN TEMP:  70; 6HR MAX TEMP:  78;

WAUKESHA       MOCLDY    73  64  73 E7        29.91R
$$

INZ001>003-010>013-019-020-210100-
NORTHWEST INDIANA

CITY           SKY/WX    TMP DP  RH WIND       PRES   REMARKS
GARY*          NOT AVBL
MICHIGAN CITY* NOT AVBL
RENSSELAER*    NOT AVBL
$$

LMZ740>746-210100-
SOUTHERN LAKE MICHIGAN

STATION/POSITION TIME  SKY/WX   TEMP WIND        PRES    VSBY
                                AIR  DIR/SP/G
                 (UTC)          (F)  (DEG/KT/KT) (MB)    (MI)
HARRISON CRIB    2300            83  240/  8/ 11   N/A
BURNHAM HARBOR   2300            84  230/  6/ 11   N/A
CALUMET HARBOR   2300            83  230/  6/ 12 1010.7R
BURNS HARBOR     2300            83  220/ 10/ 13   N/A
MICHIGAN CITY    2300            79  230/  6/  8   N/A
$$

ABBREVIATIONS USED IN REMARKS
   TC - TEMPERATURE IN CELSIUS
  WCI - WIND CHILL INDEX
   HX - HEAT INDEX
  VSB - VISIBILITY
$$



USA.gov is the U.S. government's official web portal to all federal, state and local government web resources and services.